Showing default

TJS-2, 41911

Orbit data source: Space-Track

TJS-2, 41911 is a payload satellite owned by CASC (CN) in GEO that was launched on Thu, 05 Jan 2017 UTC via a CHANG ZHENG 3B launch vehicle from the Xichang Space Center, China (XSC). Payload-class satellites include a variety of spacecraft equipped with specific instruments for various scientific and technological missions. These include communications satellites like Starlink; space stations such as the ISS; scientific satellites like the Hubble; Earth observation satellites from companies like Planet Labs, Umbra, and HawkEye 360; GPS; miniature CubeSats for education and research; and military/defense satellites.

Not visible in the next 10 days
Identifier
41911, 2017-001A
Orbit
GEO
Country
Flag of CNCN / PRC
Related business
Manufacturer
SISE
Mission
Operational Defense Early Warn
Bus & Motor
FY-4?, Unknown motor
Mass
~4,000 kg wet, ~2,500 kg dry
Launch date (UTC)
2017-01-05 (9 years ago)
Launch vehicle
CHANG ZHENG 3B
Launch site
Xichang Space Center, China (XSC)
Object type
Payload
Rocket body
Debris
Shape & HBR
Box + 2 Pan, 15.0 m
Radar Cross Section
34.063 m², Large (>1 m²)

Expand to show TLE details & history
Last TLE update: 2 days ago

TLE from 2 days ago
0 TJS-2
1 41911U 17001A   26171.40519869 -.00000011  00000-0  00000+0 0  9996
2 41911   0.8427  85.2876 0000422  52.6310 343.1096  1.00270493 34751
Epoch: 2026-06-20T09:43Z
TLE epoch observation values (Epoch: 2026-06-20T09:43:29.166Z)
Latitude
0.50991°
Longitude
66.54499°
Altitude
35,784.679 km
Speed
3.075 km/s
True Right ascension
08h 04m 08s
True Declination
0° 30' 34"
Sunlit
Object was in daylight at epoch
Visualization orbit readout
Latitude
Unknown
Longitude
Unknown
Altitude
Unknown
Speed
Unknown
Apparent Right ascension
Unknown
Apparent Declination
Unknown
Sunlit
N/A
Visualization observer readout
Local Sidereal Time
00:35:57
Azimuth
Unknown
Elevation
Unknown
Doppler factor
Unknown
Orbital elements
Apogee altitude
35,789.807 km
Perigee altitude
35,786.248 km
Semi-major axis
42,166.164 km
Eccentricity
0.00004
Inclination
0.8427°
RAAN
85.2876°
Arg. of periapsis
52.631°
True anomaly
343.10819°
Mean anomaly
343.1096°
Eccentric anomaly
343.1089°
Mean motion
0.25067 °/min
Orbital period
1,436.17 mins
BSTAR
0
Loading maneuver chart data...
Computing Atmospheric mass density...
Loading historical data...
Loading historical data...
Loading historical data...
Loading historical data...
Loading historical data...
Loading historical data...
Loading historical data...
Other satellites on launch #1 in the year 2017 (2017-01-05 UTC)

Documentation

Showing up to 5 results
|